Terminal Aerodrome Forecast
Issued by NWS Raleigh/Durham, NC

Home | Current Version | Previous Version | Text Only | Print | Product List | Glossary On
Versions: 1 2 3 4 5 6 7 8 9 10 11 12 13 14 15 16 17 18 19 20 21 22 23 24 25 26 27 28 29 30 31 32 33 34 35 36 37 38 39 40 41 42 43 44 45 46 47 48 49 50
000
FTUS42 KRAH 032043 AAB
TAFRDU
TAF AMD
KRDU 032043Z 0321/0418 VRB05KT P6SM SCT005 OVC020
      TEMPO 0321/0322 2SM -RA OVC008
     FM032200 05005KT 2SM BR OVC007
     FM040500 VRB03KT 1/2SM FG VV002
     FM041600 22012G18KT P6SM OVC015=

USA.gov is the U.S. government's official web portal to all federal, state and local government web resources and services.